This is the latest recevied weather packets stored in our database for station/object p43g-13. If no packets are shown the sender has not sent any weather packets the latest 10 day(s).
| Time | Temp. | Humidity | Pressure | Rain* | Wind** | Luminosity | Snow |
|---|---|---|---|---|---|---|---|
| 1787507668 | 33.33° C | 69% | 1010.9 hPa | 0 mm | - | 912 W/m² | - |
| 1787507369 | 32.22° C | 71% | 1011.1 hPa | 0 mm | - | 404 W/m² | - |
| 1787507067 | 32.22° C | 71% | 1011.2 hPa | 0 mm | - | 423 W/m² | - |
| 1787506769 | 32.22° C | 71% | 1011.2 hPa | 0 mm | - | 998 W/m² | - |
| 1787506468 | 32.78° C | 71% | 1011.4 hPa | 0 mm | - | 955 W/m² | - |
| 1787506170 | 32.22° C | 72% | 1011.4 hPa | 0 mm | - | 665 W/m² | - |
| 1787505868 | 32.22° C | 71% | 1011.6 hPa | 0 mm | - | 374 W/m² | - |
| 1787505569 | 32.22° C | 72% | 1011.4 hPa | 0 mm | - | 296 W/m² | - |
| 1787505268 | 32.78° C | 71% | 1011.6 hPa | 0 mm | - | 342 W/m² | - |
| 1787504970 | 32.22° C | 72% | 1011.9 hPa | 0 mm | - | 398 W/m² | - |
| 1787504668 | 32.78° C | 72% | 1011.8 hPa | 0 mm | - | 301 W/m² | - |
| 1787504370 | 32.22° C | 71% | 1012 hPa | 0 mm | - | 490 W/m² | - |
| 1787504068 | 33.33° C | 70% | 1011.9 hPa | 0 mm | - | 349 W/m² | - |
| 1787503771 | 32.78° C | 72% | 1011.8 hPa | 0 mm | - | 1009 W/m² | - |
| 1787503467 | 32.78° C | 72% | 1012 hPa | 0 mm | - | 1209 W/m² | - |
| 1787503170 | 32.22° C | 70% | 1012 hPa | 0 mm | - | 1107 W/m² | - |
| 1787502868 | 32.22° C | 72% | 1012.2 hPa | 0 mm | - | 385 W/m² | - |
| 1787502571 | 32.22° C | 72% | 1012.2 hPa | 0 mm | - | 359 W/m² | - |
| 1787502268 | 32.22° C | 71% | 1012.2 hPa | 0 mm | - | 854 W/m² | - |
| 1787501969 | 32.22° C | 71% | 1012.1 hPa | 0 mm | - | 384 W/m² | - |
| 1787501668 | 32.22° C | 71% | 1012.3 hPa | 0 mm | - | 326 W/m² | - |
| 1787501370 | 31.67° C | 74% | 1012.3 hPa | 0 mm | - | 271 W/m² | - |
| 1787501068 | 31.67° C | 74% | 1012.7 hPa | 0 mm | - | 394 W/m² | - |
| 1787500769 | 31.67° C | 74% | 1012.4 hPa | 0 mm | - | 366 W/m² | - |
| 1787500468 | 31.11° C | 74% | 1012.1 hPa | 0 mm | - | 441 W/m² | - |
* Rain latest hour (hover to see other rain measurements)
** Current wind speed in m/s (hover to see current wind gust speed)